Wind_Speed
7 6 6 7 9 9 10 10 12 13 14 13 11 11 12 10 10 10 11 11 11 11 9 6 5 6 5 3 3 5 5 5 5 5 6 8 9 9 9 8 9 11 12 12 13 14 15 15 16 18 19 19 19 18 18 19 19 19 20 20 19 18 16 16 16 17 19 19 19 18 18 18 16 14 15 17 18 15 10 8 7 7 10 12 13
10 9 8 6 5 6 7 8 10 12 13 13 11 11 11 10 9 9 9 9 8 6 3 5 5 5 4 4 4 6 6 5 5 6 7 9 10 9 9 9 10 11 12 12 13 14 14 15 16 17 18 18 18 17 18 18 18 19 19 20 20 19 18 17 18 18 19 19 18 18 18 18 15 15 16 18 18 13 11 10 8 8 10 12 14
11 11 11 10 9 9 8 7 8 10 10 10 11 10 10 8 6 6 6 5 2 2 6 6 5 5 5 5 6 6 6 5 5 7 8 10 10 9 9 10 10 11 11 12 13 14 15 16 17 17 17 17 17 17 18 18 17 18 19 20 20 20 19 18 19 19 20 18 18 18 18 17 15 15 17 18 16 12 12 12 11 10 11 12 14
14 13 13 12 12 12 11 10 9 9 9 9 9 8 6 5 3 2 1 3 6 8 9 8 7 6 6 6 7 7 6 5 6 8 9 10 10 10 10 10 11 11 12 13 14 15 16 17 17 18 18 17 17 17 19 18 17 18 19 20 20 20 20 19 19 20 20 18 17 18 18 16 15 16 17 17 14 12 13 14 14 13 13 15 17
18 16 15 15 15 14 14 13 12 12 11 9 8 7 6 5 5 6 7 9 11 11 11 9 8 7 7 7 7 7 6 6 7 9 10 10 11 11 10 11 12 12 13 13 14 16 17 18 18 19 19 17 17 18 19 18 17 17 18 20 21 21 21 20 20 21 19 17 18 18 17 15 16 17 17 16 13 13 14 15 15 16 18 19 20
21 20 19 19 19 19 18 17 16 16 15 14 13 12 11 10 11 11 12 13 13 13 12 9 8 7 7 7 7 7 6 7 9 10 10 10 11 11 12 12 13 13 14 14 15 17 17 18 19 20 19 18 18 19 20 19 17 17 18 20 21 22 22 21 21 20 18 17 18 17 16 15 17 17 16 15 14 14 15 16 17 19 21 21 22
24 23 22 22 22 23 22 22 21 21 20 19 18 17 16 15 15 14 14 14 13 12 11 9 8 8 8 7 7 6 7 9 10 10 10 11 11 12 13 13 13 14 15 16 17 17 18 18 19 20 19 18 18 19 20 20 18 17 18 19 21 22 22 21 20 18 17 18 18 16 15 16 17 17 16 14 14 15 16 17 19 21 21 21 25
26 25 24 24 24 25 25 25 24 24 23 23 22 20 17 17 16 14 13 13 12 11 11 10 9 8 8 8 7 7 9 10 10 11 11 11 12 12 13 14 14 14 15 16 16 17 17 17 18 19 19 18 18 19 19 19 19 18 18 19 21 22 22 21 18 16 17 18 17 16 16 16 16 16 15 13 15 17 18 19 20 21 21 24 27
25 25 25 25 25 26 26 26 25 25 23 23 23 19 16 15 15 14 13 12 12 11 10 10 9 9 8 7 7 9 10 10 10 10 11 11 12 12 12 13 14 15 15 15 15 16 16 18 18 19 19 17 17 18 19 19 19 18 18 19 21 22 21 19 16 17 19 19 17 16 16 16 16 16 14 14 16 18 19 20 21 22 23 27 28
24 24 24 25 25 25 26 26 26 26 23 22 21 18 15 14 13 14 13 12 11 11 10 9 9 8 7 8 9 10 10 10 10 10 11 11 11 11 11 12 14 15 15 15 15 16 18 19 19 19 18 17 17 18 18 18 18 18 18 19 21 21 20 17 15 18 20 19 17 16 16 16 16 15 15 15 17 18 20 21 22 23 26 28 26
25 24 24 24 24 24 24 24 23 22 19 20 19 16 15 14 13 13 12 11 11 10 9 8 8 8 8 9 10 11 10 10 10 10 10 10 10 10 10 11 12 14 15 15 15 17 19 19 19 19 17 17 17 18 18 17 17 18 18 19 20 20 18 16 16 18 20 18 17 16 16 16 16 15 15 16 18 20 21 22 23 24 26 26 25
25 25 24 24 23 23 22 21 19 18 16 16 16 14 14 14 12 12 11 10 10 9 9 8 9 9 10 10 10 10 10 10 10 10 10 10 10 9 10 11 10 12 14 14 15 18 19 18 18 17 16 17 18 18 17 17 17 18 18 19 20 19 17 15 16 19 19 18 16 16 16 16 16 15 16 17 19 21 22 23 24 25 25 25 26
25 24 24 24 23 22 22 20 18 17 16 15 13 13 13 13 13 12 11 11 10 10 10 10 10 10 10 10 10 11 11 10 10 9 9 10 9 10 10 11 10 12 14 14 15 18 18 18 17 16 16 17 17 18 18 18 18 18 18 19 19 19 17 16 17 18 18 17 16 16 16 16 16 16 17 19 20 22 23 24 24 25 25 26 27
23 23 23 23 23 22 21 20 18 17 16 15 13 13 13 13 13 11 10 10 10 10 10 10 10 11 10 10 11 11 10 9 9 9 9 10 10 10 10 11 11 13 13 14 15 15 16 17 16 15 16 17 17 18 19 19 19 19 19 19 19 18 17 16 17 18 17 17 16 16 16 16 16 16 18 20 21 23 23 24 25 26 26 27 28
21 21 21 21 21 21 20 20 19 18 16 15 14 13 12 12 11 10 9 9 10 10 10 10 10 11 10 10 10 10 9 8 8 9 9 9 10 10 10 10 11 13 13 13 14 14 14 15 15 16 17 18 19 19 20 21 20 20 20 19 19 18 17 17 17 18 17 17 16 16 16 16 16 17 19 20 22 23 24 24 25 26 27 28 29
19 19 20 20 20 20 19 19 19 18 17 16 15 14 13 12 11 10 9 9 9 10 10 10 10 10 10 10 9 9 8 8 8 9 9 9 9 9 9 10 11 12 13 13 13 13 14 16 17 18 19 20 21 22 23 24 22 21 20 19 18 18 17 17 18 18 17 17 17 16 17 16 17 18 20 21 22 23 24 25 26 27 28 28 29
19 18 18 19 19 19 19 18 18 18 18 16 15 15 14 13 12 11 10 10 9 10 10 10 10 10 10 9 9 10 9 9 10 10 10 10 9 9 9 10 11 11 12 12 13 14 15 17 18 20 22 24 25 25 25 25 24 23 21 20 19 19 19 19 19 19 19 19 18 18 18 17 18 19 21 22 22 23 24 25 26 26 27 28 29
19 18 18 18 18 18 18 18 17 17 17 15 13 14 14 13 12 12 11 11 10 11 11 12 11 11 11 10 10 10 10 10 10 10 10 10 10 9 9 10 11 12 12 13 15 16 17 18 20 22 24 25 25 26 26 26 27 27 25 23 22 22 22 21 21 22 21 21 20 20 19 19 19 20 21 22 22 23 24 24 25 26 27 28 28
20 19 18 17 17 17 17 17 16 17 17 15 13 14 13 12 12 12 11 11 11 12 12 12 12 11 11 11 10 10 10 10 9 9 9 9 10 10 11 12 12 12 13 14 16 18 21 22 22 24 25 25 27 30 29 27 27 28 29 29 28 27 27 26 26 26 25 24 24 22 21 20 19 20 20 21 22 22 23 23 24 25 26 26 27
20 20 19 19 18 17 16 16 16 16 17 16 14 14 13 11 12 12 12 12 12 12 12 12 12 11 10 10 9 9 9 9 8 8 9 10 11 11 12 13 13 14 15 17 18 20 23 25 27 29 30 29 31 35 35 34 33 34 35 36 35 35 34 33 32 31 30 29 27 25 23 21 20 20 20 20 21 21 21 22 23 24 24 25 26
21 20 20 20 19 18 17 17 17 17 18 16 14 13 12 12 12 12 13 12 12 12 12 11 10 9 9 8 8 8 8 8 8 9 11 12 12 13 14 14 15 17 19 21 22 22 23 25 28 31 32 32 33 35 37 38 38 39 40 41 42 42 42 41 40 39 37 35 32 29 26 23 21 20 19 19 20 20 20 20 21 22 23 24 25
21 20 20 20 20 20 19 18 17 18 18 16 15 14 14 13 13 13 13 13 13 12 11 10 10 9 9 9 9 9 9 9 10 12 13 13 13 15 16 17 19 21 23 25 25 25 26 28 31 33 34 35 35 35 35 36 39 41 43 45 46 47 47 47 47 46 44 42 39 36 31 27 23 21 19 18 18 18 19 19 20 21 22 22 23
21 21 20 20 21 21 20 20 18 18 17 17 16 16 15 15 15 15 15 14 13 13 12 11 11 11 11 11 11 11 11 12 13 14 15 15 16 17 19 21 23 25 26 27 28 29 30 31 34 34 33 34 35 36 37 38 41 43 45 46 47 48 49 50 50 50 50 49 46 43 39 34 29 25 21 19 17 17 17 18 18 19 20 21 22
19 20 20 20 20 20 20 20 19 19 19 18 19 18 17 17 17 16 16 15 15 14 14 13 13 13 13 13 13 13 14 14 15 16 17 19 20 22 23 25 27 28 29 29 30 31 31 32 33 33 31 32 34 36 38 41 43 44 45 46 48 48 49 50 51 52 52 52 51 49 47 44 39 34 29 24 20 18 16 16 17 17 17 18 19
17 18 19 20 20 20 20 20 19 20 20 20 20 20 19 18 18 17 17 16 15 15 14 14 14 14 13 14 14 15 15 16 18 19 21 23 24 26 27 28 29 29 29 30 30 31 32 32 32 31 29 28 30 33 38 40 41 42 43 45 46 47 48 49 50 50 51 52 52 51 51 49 47 44 40 35 30 25 21 18 16 16 15 16 16
15 16 17 18 19 20 19 19 19 20 20 21 21 22 21 19 18 19 18 17 15 15 14 14 14 14 14 15 16 17 17 19 21 23 24 26 27 27 27 28 30 30 30 31 31 32 32 31 30 29 26 25 27 31 33 33 34 37 40 42 43 44 45 46 47 48 49 49 50 50 50 50 50 49 47 45 42 38 33 28 23 19 17 15 15
13 14 15 16 17 18 19 19 19 19 20 20 21 22 22 21 20 21 21 18 17 16 15 14 15 16 16 17 18 19 21 23 24 25 27 28 28 28 28 29 30 31 31 32 32 32 31 31 31 29 24 23 27 29 27 27 30 35 38 40 40 41 42 43 44 45 46 46 47 47 47 48 48 48 48 48 47 46 44 40 36 31 25 21 18
11 12 12 13 15 16 17 18 18 18 18 19 20 21 22 21 21 22 22 20 19 18 17 16 17 18 19 21 21 22 24 25 25 26 27 25 25 27 29 30 30 31 31 31 31 29 28 28 27 26 23 23 25 26 25 26 29 32 35 36 36 38 39 40 41 42 42 43 44 44 44 45 45 45 45 46 47 47 47 46 45 42 38 33 28
10 10 11 11 12 13 14 16 16 17 18 17 18 20 21 21 22 22 22 21 21 20 19 19 20 20 21 22 23 23 25 25 26 27 28 26 26 29 30 30 30 30 30 29 28 27 27 28 27 26 25 25 25 25 25 26 27 29 30 29 29 32 35 36 37 38 39 39 40 41 42 42 43 43 43 44 44 45 45 45 45 45 44 42 40
10 9 9 9 10 11 12 13 14 15 16 16 17 19 20 21 22 22 21 21 21 21 21 21 22 22 22 23 23 24 24 25 25 27 28 28 29 29 29 29 28 28 27 27 26 25 26 26 25 24 23 23 24 24 24 24 25 25 25 24 25 28 31 32 33 34 35 36 37 38 39 39 40 40 41 41 42 42 43 43 43 43 43 44 44
8 8 8 7 7 8 9 11 12 13 13 14 15 18 19 18 19 20 21 20 21 21 21 22 22 22 22 22 23 23 23 23 24 25 26 27 28 28 28 27 26 24 24 23 23 22 22 22 22 22 21 20 21 21 20 21 21 22 23 22 23 25 27 29 30 31 32 33 34 35 36 37 37 38 38 39 39 40 40 41 41 41 41 41 42
6 6 7 7 7 7 7 8 9 10 12 13 14 15 17 17 16 18 20 20 20 21 22 22 22 22 21 21 21 21 21 22 23 24 25 26 27 26 26 24 23 22 21 19 17 16 18 19 19 18 18 18 18 17 17 18 19 20 21 21 22 23 24 26 27 28 29 30 31 32 33 34 35 36 37 37 38 37 37 38 39 39 40 40 40
5 5 5 7 7 7 7 7 8 9 10 11 12 13 14 15 15 16 17 19 19 20 20 21 21 21 20 20 19 20 20 21 22 23 24 25 25 24 23 21 20 19 17 13 11 10 13 15 15 15 15 16 17 16 16 17 17 18 19 20 21 22 22 24 24 26 27 28 28 29 30 31 32 33 35 35 36 36 36 36 36 37 37 38 39
6 5 5 5 7 8 8 8 8 9 9 10 11 12 12 13 13 13 14 15 16 18 19 19 19 19 18 18 18 18 18 20 21 21 22 23 22 20 17 14 13 12 9 7 7 8 10 11 12 14 13 14 14 14 14 15 16 17 18 19 20 21 22 23 23 24 26 27 28 28 28 29 30 31 32 33 33 34 34 34 34 34 34 35 36
5 6 5 5 6 8 10 10 10 10 10 10 11 11 11 11 11 11 11 12 13 15 16 17 17 17 16 16 15 15 16 17 18 19 19 19 18 16 12 8 8 9 7 7 7 7 8 9 10 12 12 12 13 13 13 14 15 16 18 19 20 21 21 22 23 25 26 27 28 28 28 29 29 29 30 30 30 31 31 32 31 31 31 32 33
2 4 5 5 5 6 9 10 11 11 10 10 11 11 11 11 10 10 9 9 10 11 12 13 14 14 14 14 13 13 14 15 16 16 17 16 15 14 11 9 9 9 9 9 8 6 7 8 8 9 10 10 10 11 12 13 14 15 16 18 19 20 21 22 23 24 25 27 27 28 28 28 28 28 28 28 28 28 28 29 29 29 29 29 30
2 2 3 4 4 5 7 9 10 10 10 11 11 11 11 10 9 9 8 7 6 7 7 9 10 11 11 12 11 11 11 12 13 14 15 14 13 12 11 10 9 8 8 8 6 6 5 5 5 6 7 7 8 9 10 11 13 14 15 16 17 19 21 22 23 24 25 26 26 27 27 27 26 26 26 26 25 25 25 25 25 26 25 26 26
7 5 4 4 4 3 4 6 8 8 9 10 11 11 11 10 9 9 8 7 5 4 3 4 5 6 7 8 9 9 9 10 11 12 13 13 12 11 10 9 8 7 6 5 4 3 2 3 4 5 6 6 7 9 10 12 13 14 15 16 17 18 19 21 22 23 24 24 24 24 24 24 24 24 24 23 23 22 22 22 22 22 22 22 23
10 9 8 7 6 4 2 3 4 6 7 8 10 10 10 10 9 9 8 7 6 4 2 1 1 2 3 4 5 5 6 8 9 10 11 11 11 10 8 7 6 6 5 4 2 1 1 3 4 6 7 8 9 10 11 12 13 15 16 17 18 18 18 19 20 21 22 22 22 22 22 22 22 21 21 20 20 19 19 19 19 19 19 19 19
11 10 10 11 11 9 6 4 3 4 6 7 9 10 9 9 8 8 8 7 6 5 4 3 3 3 3 3 4 4 4 5 6 8 9 10 10 9 8 7 6 5 4 4 3 3 4 5 6 7 9 10 11 12 13 13 14 15 16 17 19 19 19 19 19 19 20 20 20 21 20 20 20 20 19 18 17 16 16 16 16 16 16 16 15
14 12 12 13 13 12 11 8 5 5 7 8 9 10 10 10 9 8 8 7 7 6 6 6 6 6 5 5 6 6 6 7 7 7 8 9 9 9 8 8 7 7 6 6 6 7 7 8 8 9 11 12 13 14 14 15 16 17 17 18 19 19 20 20 20 20 20 19 19 19 19 19 19 19 18 17 15 13 13 13 13 13 13 13 12
18 17 17 17 16 15 14 13 10 8 9 10 11 12 12 11 10 10 9 9 8 8 8 8 8 8 9 8 8 9 9 9 10 10 10 10 9 9 9 10 10 10 10 10 10 10 10 11 11 11 13 14 15 16 16 17 17 18 19 19 19 19 20 20 20 20 20 20 19 19 18 18 17 17 17 16 15 12 11 10 10 10 10 10 10
22 21 21 20 19 17 17 16 15 13 13 13 13 14 14 14 12 12 12 11 11 11 11 11 11 11 11 11 11 11 11 12 12 13 13 13 12 12 12 13 13 13 14 14 13 13 13 13 14 14 15 16 16 17 18 19 19 19 19 19 20 20 20 20 20 20 19 19 19 19 18 18 17 17 16 16 15 13 11 9 8 9 9 9 9
26 24 24 22 22 21 21 19 17 17 18 18 16 15 16 17 16 15 14 13 13 12 13 13 14 14 13 13 14 13 13 13 13 14 15 14 15 15 16 16 16 17 17 17 17 17 16 16 17 17 17 18 18 18 19 19 20 21 21 21 21 21 20 21 22 22 21 20 20 20 20 19 18 17 17 15 15 14 12 9 8 8 9 9 9
29 28 27 26 25 24 25 24 21 19 18 20 20 19 19 20 20 19 17 15 14 14 14 15 15 16 16 15 14 14 14 14 14 15 15 15 15 16 16 17 18 19 19 20 20 20 19 19 19 20 20 20 20 21 21 21 21 22 22 23 23 23 22 21 22 23 24 24 23 22 22 21 19 17 17 16 14 13 12 10 8 8 9 9 10
32 31 30 30 29 28 27 27 27 25 22 21 21 22 23 24 24 23 21 18 17 16 15 16 17 18 19 19 17 16 15 15 15 15 15 15 15 15 15 16 17 18 20 20 21 21 22 21 21 22 23 23 22 23 23 24 24 24 23 23 24 25 24 22 22 23 25 26 25 22 20 20 19 16 16 16 15 13 12 11 9 8 8 9 10
33 33 31 31 32 33 31 30 30 30 29 28 27 25 25 27 27 27 26 23 21 19 18 18 18 19 21 22 21 20 19 18 18 17 16 16 16 15 15 15 16 17 18 19 20 20 21 21 21 21 22 23 23 23 23 24 25 25 24 23 23 25 25 22 21 22 22 24 25 23 18 17 17 16 15 15 15 13 11 11 11 9 8 8 9
35 36 35 33 34 35 36 35 34 32 32 35 36 32 30 31 32 32 31 29 26 24 22 21 20 20 21 23 24 23 23 23 21 18 17 18 17 16 15 15 15 16 16 17 18 19 19 19 19 20 20 21 22 22 22 23 24 25 25 23 22 23 23 20 18 18 18 20 24 25 21 18 17 15 14 14 15 14 13 11 11 11 10 10 9
38 39 39 38 37 36 37 38 38 37 36 38 39 38 36 36 37 37 35 33 30 28 27 25 24 23 23 23 24 24 25 26 25 21 19 19 19 18 17 16 15 14 15 16 17 18 18 18 19 19 20 20 21 22 22 22 23 25 25 24 23 23 22 19 17 15 15 16 20 25 24 21 19 16 14 13 13 14 15 14 12 11 11 11 11
41 43 43 43 42 41 39 38 40 42 43 41 42 42 39 38 39 40 39 37 34 33 32 30 28 26 26 27 27 25 25 27 27 25 24 23 22 20 19 17 16 15 15 15 16 17 17 18 18 20 20 20 21 21 21 22 23 25 25 25 23 22 22 21 19 17 15 14 17 22 24 23 20 19 16 13 11 12 15 16 16 14 12 12 13
42 42 44 47 47 46 43 42 42 45 46 45 45 45 43 41 41 41 41 40 39 37 36 34 31 30 30 31 31 29 28 28 27 26 27 27 27 25 22 19 18 18 17 16 16 17 17 18 19 21 21 22 21 21 21 21 22 24 25 24 23 22 23 23 22 21 19 16 15 17 21 22 20 19 17 15 13 11 12 16 18 18 16 15 16
Wind_Direction
102 133 176 204 214 223 224 213 208 206 207 216 220 212 211 221 236 245 258 268 276 283 297 330 2 4 10 29 41 61 71 70 65 51 48 45 46 53 50 37 28 28 29 29 31 32 34 33 32 32 30 28 24 20 17 13 11 12 14 12 13 15 16 16 14 11 7 4 4 6 10 12 15 19 14 8 9 17 43 74 82 56 27 25 24
93 103 117 136 162 185 197 197 200 203 204 212 218 223 238 254 256 253 258 264 274 289 341 27 28 34 53 61 69 79 79 76 68 54 48 45 51 55 45 32 27 28 29 28 28 29 30 30 31 30 28 27 23 18 15 12 12 15 15 14 15 16 17 18 15 11 7 5 7 9 13 14 17 22 17 11 14 32 63 71 66 47 28 24 18
93 98 104 110 114 123 141 162 183 200 211 220 229 236 241 243 239 242 253 264 293 50 68 65 69 81 83 79 84 86 84 81 67 52 48 49 56 51 38 30 27 29 29 27 27 28 29 30 29 28 26 25 21 17 14 12 15 17 17 15 14 14 15 16 14 11 9 9 10 12 15 16 20 25 20 15 23 49 68 66 59 48 35 30 31
90 97 103 109 111 114 120 131 150 173 191 200 205 206 202 197 193 200 167 103 93 93 92 94 99 99 96 98 97 95 92 82 62 52 52 55 52 43 34 28 29 29 27 27 29 30 31 30 27 24 23 23 21 18 14 13 15 18 18 16 14 12 11 12 12 11 11 14 14 14 17 19 23 25 21 23 38 61 64 62 58 54 50 50 51
82 92 101 106 109 112 114 119 125 133 141 142 141 135 126 118 113 110 108 108 108 107 107 109 110 108 109 110 109 105 94 74 59 56 57 56 48 39 34 31 32 29 27 26 28 32 31 29 26 22 20 22 23 20 16 14 15 18 18 15 13 11 10 10 11 12 13 16 15 15 18 23 26 24 23 34 55 69 64 62 60 60 60 56 46
77 85 94 99 101 102 103 104 105 105 105 102 100 98 98 100 102 105 109 111 113 113 113 113 111 110 112 110 104 95 78 63 59 59 57 52 46 41 37 35 33 29 26 25 28 32 31 28 25 21 21 25 26 22 19 16 14 15 15 15 13 10 10 10 11 15 18 18 16 17 22 28 28 25 27 45 68 73 66 64 63 62 58 45 31
74 80 86 91 93 95 96 96 95 95 94 94 93 91 93 98 100 101 106 108 110 112 112 111 110 111 108 103 95 81 67 62 64 62 54 50 47 44 41 37 33 30 29 28 30 31 29 27 24 22 24 27 26 23 20 17 16 16 16 15 12 11 11 11 14 21 23 19 17 19 26 30 28 28 36 56 73 72 67 66 65 60 49 33 28
72 77 81 84 86 89 90 91 91 91 90 91 92 90 91 95 98 101 103 105 108 109 109 110 111 109 105 100 89 77 71 70 69 63 57 54 51 47 45 41 35 33 30 28 30 30 28 25 23 24 26 28 25 22 21 17 17 17 17 15 12 12 13 14 21 27 25 20 19 23 28 29 28 34 47 65 72 68 67 67 65 56 40 32 34
70 74 76 79 80 81 83 84 86 87 87 89 90 90 91 95 100 104 105 105 106 107 108 110 108 105 100 93 82 77 76 75 71 65 61 59 54 51 48 43 39 35 30 29 33 31 27 24 25 28 28 25 20 20 20 16 17 18 16 14 12 15 16 19 28 28 22 22 23 26 29 28 31 43 59 72 72 68 69 68 64 53 40 39 39
67 70 73 75 77 79 81 81 81 82 83 86 88 89 94 97 99 101 101 102 103 105 106 105 103 99 91 86 84 82 78 74 70 67 63 61 58 55 49 46 43 37 30 31 35 34 32 29 29 29 26 20 15 16 16 13 15 15 14 14 14 17 19 24 32 26 22 26 28 28 29 31 37 53 70 76 72 70 70 68 64 54 47 45 41
66 68 70 73 75 78 82 83 82 81 81 83 88 94 97 97 96 96 98 99 100 100 99 97 94 89 86 86 88 86 81 74 70 66 62 59 61 57 50 47 41 36 36 36 35 37 36 32 31 28 22 16 13 10 9 10 13 12 13 15 17 20 22 29 31 23 24 32 33 31 31 34 44 62 77 78 74 72 70 68 65 58 52 49 44
67 68 69 71 73 75 79 82 83 83 85 85 89 95 98 98 98 96 96 96 94 92 89 87 85 83 84 87 86 82 77 71 67 65 62 59 57 55 49 45 40 39 43 43 41 38 34 30 29 25 16 11 8 5 5 9 12 14 15 18 21 22 25 30 26 21 27 37 37 35 35 39 51 70 80 79 75 72 69 67 65 60 55 52 47
68 68 69 70 72 73 75 79 81 83 87 90 92 96 95 96 96 93 93 91 89 88 86 85 84 85 86 85 83 80 74 67 66 65 62 57 52 49 45 42 44 48 49 49 46 40 34 29 22 16 10 7 6 5 8 12 15 17 19 22 25 26 29 30 23 23 33 40 40 40 40 44 58 76 82 78 75 72 69 67 65 62 58 55 51
69 69 69 70 71 72 73 76 81 83 86 89 92 93 93 93 90 88 89 89 89 88 86 86 86 87 86 83 82 81 78 72 70 65 60 54 47 44 47 48 50 50 49 48 46 41 38 33 21 11 11 10 11 13 14 17 19 22 24 26 28 29 30 28 24 28 37 41 43 44 45 51 65 80 84 79 76 73 70 68 65 63 60 57 53
72 72 72 72 72 73 73 74 77 79 80 80 81 83 85 86 86 87 88 88 90 89 88 88 88 88 87 84 82 80 79 74 68 63 56 48 41 40 48 55 57 54 52 51 49 43 37 32 24 20 22 22 22 23 23 24 25 27 30 31 31 31 30 28 29 35 41 44 47 49 51 59 72 84 85 81 78 75 72 69 66 64 61 58 55
73 74 74 75 75 76 77 76 75 76 76 73 72 73 76 79 82 84 83 84 87 86 86 85 85 86 83 79 77 72 66 60 55 52 46 41 37 39 45 54 63 59 54 53 49 42 36 34 32 32 33 34 34 33 32 30 30 32 35 35 34 32 32 33 36 41 45 47 50 53 57 66 78 87 86 83 80 77 74 70 67 65 62 59 57
72 73 74 75 76 77 78 78 77 78 76 72 70 71 72 72 73 73 72 75 77 76 76 75 74 74 73 71 69 65 55 47 46 42 39 37 35 39 47 54 60 60 56 54 51 47 43 42 41 42 44 45 43 41 40 39 38 38 38 39 38 37 39 40 43 46 49 51 54 57 63 72 83 89 88 85 82 80 76 72 69 66 63 61 58
68 70 72 74 75 76 77 77 77 80 80 79 77 76 76 74 74 73 69 69 70 69 68 67 65 66 67 66 64 60 54 46 43 40 39 38 36 42 54 56 58 60 59 58 59 56 54 53 53 53 55 53 50 48 49 50 48 44 43 46 46 46 46 47 49 51 53 57 59 61 67 75 85 90 89 87 84 82 78 74 70 67 65 62 60
64 66 68 70 72 74 76 78 79 82 85 86 80 75 77 81 82 82 78 73 72 70 68 67 66 64 63 62 60 58 55 50 44 42 43 46 48 54 59 60 61 62 62 66 67 64 62 62 61 61 63 62 60 58 55 54 52 51 53 54 55 54 54 54 55 56 58 60 61 64 69 77 86 91 90 88 86 83 80 76 72 68 66 63 61
62 63 63 65 67 69 74 78 81 83 83 83 81 77 78 83 84 85 83 78 74 73 70 69 66 64 61 58 59 57 56 55 49 47 54 59 64 66 65 64 63 63 65 69 71 70 70 71 70 69 69 68 68 66 63 60 61 61 61 61 61 61 61 60 60 60 61 62 63 65 70 77 84 89 89 88 85 83 80 77 73 69 66 64 62
61 62 63 62 63 65 69 74 78 82 82 79 81 82 82 83 82 82 81 77 74 72 70 68 65 63 63 62 62 63 61 60 59 62 68 70 72 73 71 69 68 69 70 73 77 80 79 78 77 74 73 72 71 70 67 65 66 66 65 65 64 64 63 63 63 63 63 63 64 65 68 73 80 85 87 86 84 82 80 76 73 69 66 64 63
60 61 62 62 62 63 65 69 72 78 82 82 81 80 79 78 77 78 79 78 75 73 70 70 69 68 70 72 72 72 72 71 72 74 78 78 76 74 73 74 75 76 77 80 83 86 85 84 82 80 78 75 73 73 72 69 69 68 67 66 65 65 65 64 64 64 64 64 64 64 65 68 73 78 81 82 82 81 78 75 72 69 66 64 63
59 60 61 62 63 63 63 66 68 71 75 78 77 74 72 74 76 76 77 78 78 77 76 75 77 78 78 80 80 80 81 81 81 82 82 81 79 78 78 79 81 83 85 86 88 88 88 87 85 82 77 73 73 75 75 73 71 69 67 66 65 65 65 64 64 64 64 64 64 64 65 65 67 69 72 75 77 76 75 73 71 69 66 65 63
59 59 60 61 62 63 64 64 65 65 66 68 69 70 67 67 70 73 74 76 78 78 80 81 81 82 82 83 84 85 85 84 84 84 83 83 83 84 85 85 87 89 90 90 90 89 88 87 85 81 76 74 75 74 74 74 72 70 68 67 66 65 64 64 64 64 64 64 64 64 64 64 64 65 65 67 68 69 70 69 69 68 66 65 63
57 58 59 61 62 63 64 64 62 62 61 61 64 68 67 63 64 68 70 72 76 78 81 84 84 84 84 84 84 84 84 84 84 84 85 86 87 87 88 91 93 93 93 92 91 90 89 87 83 78 74 73 74 75 77 75 71 70 70 69 67 66 65 65 64 64 63 63 63 63 63 63 63 63 63 63 63 63 63 63 64 64 64 63 63
55 57 57 59 61 62 63 63 62 61 61 61 62 65 67 65 63 65 67 68 72 77 79 83 85 85 83 82 81 82 83 83 84 86 87 89 91 91 93 95 96 96 95 94 93 92 90 86 81 76 71 72 77 80 79 71 68 70 71 70 68 67 66 65 65 64 64 63 63 62 62 62 62 62 62 62 62 61 61 60 59 59 59 58 59
51 54 56 56 59 61 62 63 63 61 61 62 64 64 66 68 67 68 69 66 69 74 78 82 85 85 84 82 80 81 83 83 85 87 89 91 93 96 100 100 99 99 98 97 96 94 89 85 82 79 75 76 80 80 74 68 71 74 73 70 69 68 67 65 65 65 64 63 63 63 62 62 62 61 61 61 60 60 60 59 59 58 57 56 56
52 53 54 54 56 58 59 61 62 62 60 61 65 66 66 67 68 69 70 69 71 74 77 81 83 84 84 84 84 83 85 87 90 93 94 96 99 103 105 104 103 102 101 99 97 91 86 84 83 80 79 81 81 76 72 71 74 74 71 68 66 66 66 65 64 64 63 63 62 62 62 61 61 60 60 60 60 60 59 59 58 58 57 57 57
56 52 51 51 52 54 57 59 60 62 60 58 62 67 67 67 69 69 71 73 75 77 79 81 83 84 84 86 87 87 88 93 97 99 102 106 110 109 108 107 106 105 102 99 95 89 87 87 86 83 82 82 81 78 76 74 74 72 68 62 60 63 63 62 62 60 59 60 59 60 60 60 60 59 59 59 59 58 59 58 58 58 57 57 57
55 52 49 48 48 48 50 53 56 59 60 58 60 66 70 71 71 71 71 73 77 80 82 84 85 85 86 88 90 91 93 97 101 104 108 112 113 111 111 110 107 104 100 96 92 91 91 91 89 87 86 84 81 80 78 74 72 68 63 61 62 61 60 59 58 56 55 54 54 54 55 55 56 56 57 57 57 56 56 56 56 56 57 57 57
43 48 50 46 44 43 42 45 48 52 57 58 59 65 70 73 74 76 77 78 80 83 84 84 85 86 87 88 91 93 97 101 105 110 113 114 114 113 112 110 105 101 96 93 91 90 91 91 88 87 88 88 84 81 76 71 68 65 64 65 62 56 55 56 53 52 51 50 49 48 48 48 48 49 50 52 54 54 53 53 53 53 54 56 57
29 35 44 41 37 35 34 33 36 40 46 51 55 60 67 72 75 80 83 83 82 82 84 85 86 87 88 89 92 95 99 105 111 114 116 117 117 115 113 109 104 98 92 85 83 83 85 88 85 79 81 85 83 79 75 69 65 64 64 61 54 50 52 51 47 47 47 45 44 44 43 43 42 42 43 44 47 49 50 49 49 50 51 52 53
26 21 31 33 28 25 23 22 24 28 33 40 46 52 61 67 69 72 78 83 84 85 86 88 90 91 92 93 96 100 105 111 116 118 120 121 120 118 115 109 103 99 93 82 76 81 85 87 83 78 78 80 77 75 73 68 63 59 57 53 49 47 48 45 43 43 42 40 39 39 38 38 37 38 39 39 40 41 44 46 46 48 49 50 50
25 19 20 27 25 20 15 11 13 19 23 28 34 40 49 61 70 74 77 81 85 88 89 90 93 94 96 98 102 107 113 118 122 124 125 126 125 124 121 115 112 111 106 93 90 95 94 87 84 82 79 74 71 68 66 61 55 51 48 46 43 41 40 39 38 37 36 36 36 35 35 35 34 35 35 36 36 36 38 41 44 45 46 48 48
22 18 14 17 24 21 14 8 5 11 17 21 25 29 32 41 56 71 78 81 83 88 90 92 94 97 99 102 106 112 119 125 129 130 132 132 132 133 134 126 122 121 114 107 103 102 99 87 79 78 73 66 62 57 54 49 45 41 38 35 34 32 31 30 30 30 32 33 34 34 34 34 34 34 34 35 35 35 35 37 39 42 44 45 46
22 12 8 8 14 16 15 10 3 4 11 18 21 24 25 25 32 46 63 76 82 86 90 94 97 100 102 106 110 117 125 131 136 138 140 140 140 141 139 130 126 123 119 118 116 111 104 90 76 70 64 58 51 45 41 37 34 32 29 27 26 25 25 25 24 24 25 28 30 32 33 35 35 35 35 35 35 34 34 35 36 38 40 42 43
254 316 341 352 2 13 16 10 3 1 5 13 19 22 24 22 20 23 34 49 68 82 90 94 98 102 105 109 115 122 130 137 143 147 149 150 150 149 146 139 136 134 130 127 123 114 104 86 68 58 49 44 38 33 30 27 25 26 25 24 23 21 20 20 21 22 22 23 25 27 29 32 34 35 35 34 33 33 33 34 35 37 38 39 41
241 248 275 305 327 358 11 4 359 358 0 7 12 15 19 22 19 14 14 20 32 53 77 96 102 106 109 112 117 125 136 147 153 157 160 161 162 161 158 154 149 147 147 142 133 121 96 54 36 30 24 18 15 12 12 15 17 20 21 21 21 19 16 16 17 19 20 21 21 23 25 27 30 31 32 31 30 29 30 30 31 33 36 38 39
246 243 258 271 277 292 320 332 338 342 347 353 358 1 7 14 16 13 6 1 2 6 8 14 141 140 134 132 131 135 145 156 166 173 176 177 177 177 174 172 169 169 172 174 176 194 326 347 349 347 348 349 351 352 355 360 3 6 9 10 11 13 14 14 12 13 15 17 17 18 20 23 26 27 27 27 26 24 24 25 25 27 31 34 36
250 246 256 264 263 262 265 268 286 306 319 330 336 341 346 351 359 5 2 354 344 335 321 300 273 247 222 199 190 183 180 182 187 191 194 195 195 196 195 195 199 204 212 226 245 268 292 310 320 324 327 330 334 338 341 346 350 352 354 356 357 359 3 5 7 7 9 11 12 13 14 16 19 21 21 21 20 19 17 16 17 20 23 26 30
247 242 247 260 267 267 262 257 261 278 291 305 314 319 324 328 333 338 343 342 332 321 306 289 274 261 250 237 227 218 212 211 213 212 213 214 214 215 218 222 227 234 241 252 267 280 289 297 305 312 317 321 325 329 332 335 338 340 341 343 345 347 349 351 354 357 359 2 4 5 6 7 9 12 14 14 12 10 9 8 7 9 12 16 21
246 241 238 248 265 276 270 257 252 263 278 288 296 302 305 309 313 313 316 318 318 315 307 295 284 273 263 254 244 236 229 224 223 223 223 224 227 229 233 238 242 248 253 258 266 276 285 293 300 305 310 314 316 319 322 325 327 329 330 333 335 337 338 339 340 343 345 348 351 353 355 356 357 0 4 5 3 0 357 356 355 354 357 2 6
245 242 240 242 253 266 273 266 259 260 265 271 281 288 290 292 295 296 298 303 308 312 311 307 301 292 283 275 267 257 249 241 235 233 231 229 229 231 235 240 245 250 256 260 265 271 278 286 293 298 302 304 306 308 311 313 316 318 320 322 324 326 327 328 329 330 331 333 335 338 339 340 342 345 349 353 354 351 346 342 338 336 336 340 345
248 245 243 243 245 252 262 267 267 267 265 263 263 268 275 280 282 283 287 293 298 304 308 309 308 303 297 290 285 281 275 269 261 255 249 243 237 234 234 238 242 246 251 256 260 265 270 276 280 284 287 290 294 296 298 301 304 307 309 312 314 316 317 318 319 320 320 320 321 322 322 323 323 326 329 334 340 341 337 331 322 319 319 320 323
252 249 247 246 245 247 252 256 259 262 265 265 260 258 264 273 275 275 279 286 291 293 297 301 302 301 299 295 290 287 284 282 279 274 270 266 260 252 248 246 246 248 250 253 258 262 266 269 273 276 278 279 282 285 288 290 291 294 298 301 304 307 310 311 311 313 314 314 314 316 315 312 310 311 313 317 322 326 327 323 315 305 304 306 307
253 252 251 251 250 248 249 250 251 250 253 258 260 257 262 271 274 274 274 277 282 285 286 290 294 295 295 295 293 290 286 282 279 277 277 276 275 273 268 263 260 259 257 258 260 262 264 266 269 273 276 278 278 281 283 285 287 288 291 295 299 302 306 308 309 310 311 312 314 316 317 314 309 305 304 305 308 310 311 311 308 301 294 295 297
253 252 251 253 254 253 251 250 249 247 246 249 251 251 256 265 270 271 271 271 273 276 279 281 285 288 290 292 293 293 293 290 284 282 282 281 279 278 276 274 273 272 271 271 271 271 272 272 272 274 277 280 282 284 285 288 290 291 292 295 298 300 303 307 309 309 312 314 315 317 322 321 315 309 303 300 299 298 295 297 299 297 288 283 284
251 252 252 254 256 256 254 253 251 248 246 247 248 248 251 258 263 266 268 268 268 270 273 273 274 278 282 285 287 289 291 289 284 281 282 283 280 279 278 275 274 275 277 279 280 282 284 285 286 286 286 287 289 291 293 294 296 296 297 298 299 300 303 307 309 310 311 312 311 314 322 327 323 316 307 299 296 294 289 285 288 291 289 281 275
251 253 254 255 256 257 257 257 256 252 247 247 249 248 247 254 261 263 265 266 267 267 268 268 267 267 269 272 276 280 282 282 278 275 275 275 276 278 277 275 274 277 278 279 281 286 290 292 293 293 294 294 295 297 299 299 299 299 300 301 303 304 307 310 311 308 305 303 303 308 317 325 327 326 318 303 294 292 290 287 283 280 279 277 273
252 254 255 256 257 257 257 259 259 256 251 248 249 249 248 251 257 262 263 265 265 266 267 266 265 265 265 265 266 268 271 274 274 274 273 272 271 271 271 272 275 277 279 281 282 285 289 292 292 293 296 299 299 298 299 299 299 298 298 300 303 305 306 309 311 311 305 300 297 301 309 316 321 325 324 313 300 293 292 292 290 284 278 274 271
250 254 256 257 257 257 257 259 260 258 256 251 248 249 250 249 252 257 261 262 262 263 266 267 265 263 262 262 262 262 265 267 270 272 273 273 271 269 270 273 274 276 279 281 282 283 287 291 292 292 294 296 297 296 295 294 295 295 295 297 301 304 304 303 306 310 308 304 297 295 298 302 306 312 313 308 303 297 291 291 293 292 288 278 268
Height
10960 10960 10959 10959 10959 10959 10960 10962 10963 10964 10965 10966 10967 10968 10967 10967 10967 10968 10968 10968 10969 10969 10968 10968 10968 10968 10968 10968 10968 10968 10968 10968 10968 10967 10967 10966 10966 10965 10964 10964 10963 10962 10961 10960 10959 10957 10956 10954 10953 10951 10950 10948 10946 10944 10942 10940 10938 10936 10934 10932 10930 10928 10926 10924 10922 10920 10918 10916 10914 10912 10910 10909 10907 10905 10903 10901 10899 10897 10896 10896 10895 10895 10894 10892 10891
10961 10960 10960 10959 10959 10959 10960 10961 10963 10964 10965 10966 10967 10967 10967 10967 10967 10968 10968 10969 10969 10969 10968 10968 10969 10969 10969 10969 10969 10969 10969 10969 10969 10968 10968 10967 10967 10966 10966 10965 10964 10963 10962 10961 10960 10958 10956 10955 10953 10952 10950 10949 10947 10945 10943 10941 10939 10937 10935 10933 10930 10928 10927 10925 10923 10921 10918 10916 10914 10912 10911 10909 10908 10906 10904 10901 10899 10898 10897 10897 10896 10896 10894 10893 10892
10961 10961 10961 10960 10960 10960 10961 10961 10962 10963 10965 10966 10967 10967 10968 10968 10968 10968 10969 10969 10969 10968 10968 10969 10970 10970 10970 10970 10970 10970 10970 10970 10970 10969 10969 10968 10968 10968 10967 10966 10965 10964 10963 10962 10960 10959 10957 10956 10954 10952 10951 10949 10947 10946 10944 10942 10940 10938 10936 10933 10931 10929 10927 10925 10923 10921 10919 10917 10915 10913 10911 10910 10908 10906 10904 10901 10900 10898 10898 10898 10897 10896 10895 10894 10893
10963 10962 10962 10962 10962 10962 10962 10963 10964 10965 10966 10967 10968 10968 10969 10968 10969 10969 10969 10969 10969 10969 10969 10970 10970 10970 10971 10971 10971 10971 10971 10971 10970 10970 10970 10970 10969 10969 10968 10967 10966 10965 10964 10963 10961 10960 10958 10956 10955 10953 10951 10950 10948 10946 10944 10942 10940 10938 10936 10934 10932 10930 10928 10926 10924 10922 10920 10917 10915 10913 10912 10910 10908 10906 10904 10902 10900 10899 10899 10898 10898 10897 10896 10896 10894
10964 10964 10963 10964 10964 10964 10964 10965 10966 10967 10967 10968 10968 10968 10968 10968 10969 10969 10969 10969 10969 10970 10971 10971 10971 10971 10971 10971 10971 10972 10972 10972 10971 10971 10971 10971 10970 10970 10969 10968 10967 10966 10965 10964 10962 10960 10959 10957 10955 10954 10952 10950 10948 10947 10945 10943 10941 10939 10937 10935 10933 10930 10928 10926 10924 10922 10920 10918 10916 10914 10912 10910 10909 10907 10905 10903 10901 10901 10900 10900 10899 10898 10897 10896 10894
10967 10966 10966 10965 10966 10966 10966 10966 10967 10967 10967 10967 10967 10968 10968 10969 10969 10970 10970 10971 10971 10971 10972 10972 10972 10972 10973 10973 10973 10973 10973 10973 10973 10973 10972 10972 10971 10971 10970 10969 10968 10967 10966 10965 10963 10961 10960 10958 10956 10954 10952 10951 10949 10947 10945 10943 10941 10939 10937 10935 10933 10931 10929 10927 10925 10923 10921 10919 10917 10915 10913 10911 10909 10907 10905 10904 10903 10902 10902 10901 10900 10899 10897 10896 10894
10970 10969 10969 10968 10968 10967 10967 10967 10967 10967 10967 10968 10969 10970 10970 10971 10971 10972 10972 10973 10973 10973 10973 10973 10973 10974 10974 10974 10974 10974 10974 10974 10974 10974 10974 10973 10972 10972 10971 10970 10969 10968 10967 10965 10964 10962 10961 10959 10957 10955 10954 10952 10950 10948 10946 10944 10942 10940 10938 10936 10934 10932 10930 10927 10925 10923 10922 10920 10918 10916 10914 10912 10910 10908 10906 10905 10904 10904 10903 10902 10901 10899 10897 10896 10894
10974 10973 10973 10972 10971 10970 10969 10969 10969 10969 10969 10970 10972 10973 10973 10974 10974 10975 10975 10974 10975 10974 10974 10975 10975 10975 10975 10975 10975 10975 10975 10975 10975 10975 10974 10974 10973 10973 10972 10971 10970 10969 10968 10966 10965 10963 10962 10960 10958 10956 10955 10953 10951 10949 10947 10945 10943 10941 10939 10937 10935 10933 10930 10928 10926 10925 10923 10921 10919 10917 10915 10913 10911 10909 10907 10906 10906 10905 10904 10903 10902 10900 10898 10897 10895
10978 10977 10976 10975 10974 10974 10973 10973 10973 10973 10973 10974 10974 10975 10976 10976 10976 10977 10977 10976 10976 10976 10976 10976 10976 10976 10976 10976 10976 10976 10976 10976 10976 10976 10975 10975 10974 10974 10973 10972 10971 10969 10968 10967 10966 10964 10963 10961 10959 10958 10956 10954 10952 10950 10948 10946 10944 10942 10940 10938 10936 10934 10931 10929 10928 10926 10924 10922 10920 10918 10916 10914 10912 10910 10909 10908 10907 10907 10906 10904 10903 10901 10899 10898 10896
10980 10979 10979 10978 10977 10977 10976 10976 10976 10976 10977 10978 10978 10979 10979 10979 10979 10979 10979 10978 10978 10978 10978 10977 10977 10977 10977 10977 10977 10977 10977 10977 10977 10976 10976 10975 10975 10974 10974 10973 10971 10970 10969 10967 10966 10965 10963 10962 10960 10959 10958 10956 10953 10951 10949 10947 10945 10943 10941 10939 10937 10935 10933 10931 10929 10927 10925 10922 10920 10919 10917 10915 10913 10912 10911 10910 10909 10908 10907 10906 10904 10903 10901 10899 10898
10982 10982 10982 10981 10980 10980 10979 10980 10980 10979 10980 10981 10981 10983 10982 10982 10982 10981 10981 10980 10980 10979 10979 10979 10979 10979 10978 10978 10978 10978 10978 10978 10977 10977 10977 10976 10976 10975 10974 10973 10972 10971 10970 10968 10967 10966 10964 10963 10962 10960 10959 10957 10955 10952 10950 10948 10946 10944 10943 10941 10938 10936 10934 10932 10930 10928 10926 10923 10921 10920 10918 10916 10915 10914 10913 10912 10911 10910 10909 10908 10906 10904 10903 10901 10900
10985 10984 10984 10983 10983 10983 10982 10983 10982 10982 10982 10983 10984 10985 10984 10984 10984 10983 10983 10982 10981 10981 10980 10980 10980 10980 10980 10980 10980 10979 10979 10979 10978 10978 10977 10977 10977 10976 10975 10974 10973 10972 10971 10969 10968 10967 10965 10964 10963 10962 10960 10958 10956 10954 10952 10950 10948 10946 10944 10942 10940 10938 10936 10933 10931 10929 10927 10924 10923 10921 10919 10918 10917 10915 10915 10914 10913 10912 10911 10909 10908 10906 10905 10903 10901
10987 10987 10986 10986 10985 10985 10985 10985 10985 10984 10985 10986 10986 10986 10986 10985 10985 10985 10984 10983 10982 10982 10982 10982 10981 10981 10981 10981 10981 10980 10980 10979 10979 10979 10978 10978 10977 10977 10976 10975 10974 10973 10971 10970 10969 10968 10967 10966 10964 10963 10961 10959 10957 10955 10953 10951 10949 10947 10945 10943 10941 10939 10937 10935 10933 10931 10928 10926 10924 10922 10921 10919 10918 10917 10917 10916 10915 10914 10913 10911 10910 10908 10907 10905 10903
10989 10989 10989 10988 10988 10988 10987 10987 10987 10988 10988 10988 10988 10988 10987 10987 10986 10986 10985 10984 10984 10983 10983 10983 10983 10983 10982 10982 10982 10982 10981 10981 10980 10980 10979 10979 10978 10977 10976 10975 10974 10973 10972 10971 10969 10969 10968 10967 10966 10964 10962 10960 10959 10957 10955 10953 10951 10949 10947 10945 10943 10940 10938 10936 10934 10932 10930 10928 10926 10924 10922 10921 10920 10919 10919 10918 10917 10916 10915 10914 10912 10911 10909 10907 10905
10992 10991 10991 10991 10990 10990 10990 10990 10990 10990 10990 10990 10989 10989 10988 10988 10988 10987 10987 10986 10985 10985 10984 10984 10984 10984 10984 10983 10983 10983 10982 10982 10981 10981 10980 10980 10979 10978 10977 10976 10975 10974 10973 10972 10970 10970 10969 10968 10967 10966 10963 10962 10960 10958 10956 10954 10953 10951 10948 10946 10944 10942 10940 10938 10936 10934 10932 10929 10928 10926 10924 10923 10922 10921 10921 10920 10919 10918 10917 10916 10915 10913 10911 10910 10908
10995 10994 10993 10993 10992 10992 10992 10992 10991 10992 10992 10992 10991 10991 10990 10989 10989 10989 10988 10987 10986 10986 10985 10985 10985 10985 10985 10985 10984 10984 10984 10983 10983 10982 10981 10980 10980 10979 10978 10977 10976 10975 10974 10973 10972 10971 10970 10969 10968 10966 10965 10963 10962 10960 10958 10957 10955 10953 10950 10948 10946 10944 10941 10939 10937 10935 10933 10931 10930 10928 10926 10925 10924 10924 10923 10923 10922 10921 10920 10919 10917 10916 10914 10912 10911
10997 10997 10996 10995 10994 10994 10994 10994 10993 10993 10993 10994 10994 10993 10992 10992 10991 10991 10990 10989 10988 10988 10987 10987 10986 10986 10986 10986 10986 10986 10985 10985 10984 10983 10982 10982 10981 10980 10979 10978 10977 10976 10975 10974 10973 10972 10971 10970 10969 10968 10966 10965 10964 10962 10961 10960 10958 10955 10953 10950 10948 10946 10943 10941 10939 10937 10935 10933 10932 10930 10928 10927 10926 10926 10925 10925 10924 10923 10922 10921 10920 10918 10917 10915 10913
11000 10999 10998 10997 10997 10996 10996 10996 10996 10995 10995 10995 10995 10994 10993 10993 10993 10992 10992 10991 10990 10989 10988 10988 10988 10988 10988 10987 10987 10987 10987 10986 10986 10985 10984 10983 10982 10981 10980 10979 10978 10977 10976 10975 10974 10973 10973 10972 10971 10970 10968 10967 10966 10965 10964 10963 10960 10958 10956 10953 10951 10948 10946 10944 10941 10939 10937 10936 10934 10932 10931 10930 10929 10928 10928 10928 10927 10926 10925 10924 10922 10921 10920 10918 10916
11003 11002 11001 11000 10999 10998 10998 10998 10998 10997 10996 10997 10996 10994 10994 10994 10994 10993 10993 10992 10991 10990 10989 10989 10989 10989 10989 10988 10988 10988 10988 10988 10987 10986 10985 10984 10983 10983 10982 10981 10980 10979 10978 10976 10975 10975 10974 10974 10973 10973 10971 10970 10969 10968 10967 10965 10962 10960 10959 10957 10954 10952 10949 10946 10944 10942 10940 10938 10936 10935 10933 10932 10932 10931 10931 10930 10929 10929 10928 10926 10925 10924 10922 10921 10919
11006 11005 11003 11003 11002 11001 11001 11000 11000 10999 10998 10998 10998 10996 10996 10996 10995 10994 10993 10993 10992 10991 10991 10990 10990 10990 10990 10989 10989 10989 10989 10988 10988 10987 10986 10985 10985 10984 10983 10982 10981 10980 10980 10978 10977 10977 10977 10976 10976 10975 10974 10974 10972 10971 10970 10968 10965 10963 10962 10960 10958 10955 10952 10950 10947 10945 10943 10941 10939 10938 10936 10935 10935 10934 10934 10933 10932 10932 10931 10929 10928 10927 10925 10924 10923
11009 11007 11006 11005 11005 11004 11003 11002 11002 11001 11001 11001 11001 10999 10998 10997 10996 10995 10994 10994 10993 10992 10992 10992 10991 10991 10990 10990 10990 10990 10989 10989 10988 10988 10987 10987 10986 10986 10985 10984 10983 10983 10982 10981 10980 10980 10980 10979 10978 10978 10978 10977 10976 10975 10975 10974 10971 10968 10967 10965 10962 10959 10956 10953 10951 10949 10946 10944 10943 10941 10940 10939 10938 10937 10937 10936 10935 10935 10934 10933 10931 10930 10929 10927 10926
11011 11010 11009 11008 11007 11007 11006 11005 11004 11003 11003 11004 11003 11001 11000 10999 10997 10996 10995 10995 10994 10994 10993 10993 10992 10992 10991 10991 10991 10990 10990 10989 10989 10989 10988 10988 10988 10988 10987 10986 10986 10985 10984 10984 10983 10983 10982 10982 10981 10981 10982 10981 10980 10979 10979 10978 10976 10973 10971 10969 10967 10964 10961 10958 10955 10953 10950 10948 10946 10945 10943 10942 10941 10941 10940 10939 10938 10938 10937 10935 10934 10933 10932 10931 10929
11014 11013 11012 11011 11010 11009 11008 11007 11007 11006 11005 11004 11003 11002 11001 11000 10999 10998 10997 10996 10995 10995 10995 10994 10994 10993 10993 10992 10992 10991 10991 10991 10990 10990 10989 10989 10989 10990 10991 10989 10988 10988 10987 10987 10987 10986 10986 10985 10985 10984 10985 10985 10984 10983 10982 10982 10979 10976 10975 10974 10971 10968 10966 10963 10960 10958 10955 10953 10951 10949 10947 10946 10945 10944 10943 10942 10941 10940 10939 10938 10937 10936 10935 10934 10932
11016 11015 11014 11013 11012 11011 11010 11010 11009 11008 11007 11006 11005 11004 11003 11002 11001 11000 10998 10998 10997 10996 10996 10996 10995 10995 10994 10994 10993 10993 10993 10992 10992 10991 10991 10991 10991 10992 10993 10992 10991 10991 10991 10991 10990 10990 10989 10989 10988 10988 10988 10988 10988 10988 10986 10985 10983 10980 10979 10978 10975 10973 10971 10968 10965 10963 10960 10958 10956 10954 10952 10951 10949 10948 10947 10946 10945 10943 10942 10941 10940 10939 10937 10936 10935
11019 11018 11017 11016 11015 11014 11013 11012 11011 11010 11009 11009 11007 11006 11005 11005 11004 11002 11001 11000 10999 10999 10998 10998 10997 10997 10996 10996 10995 10995 10995 10994 10994 10994 10993 10993 10993 10994 10994 10995 10995 10994 10994 10994 10994 10993 10993 10992 10992 10992 10992 10992 10993 10992 10991 10988 10987 10985 10984 10982 10980 10978 10976 10973 10970 10968 10966 10964 10962 10960 10958 10956 10954 10953 10951 10950 10948 10946 10945 10944 10942 10941 10940 10939 10938
11021 11020 11019 11018 11017 11016 11015 11014 11013 11012 11012 11011 11010 11008 11007 11007 11006 11005 11003 11003 11002 11001 11001 11000 10999 10999 10998 10998 10998 10997 10997 10997 10997 10996 10996 10996 10996 10997 10998 10998 10998 10997 10998 10998 10997 10997 10996 10996 10995 10995 10996 10997 10996 10996 10994 10992 10991 10990 10987 10986 10984 10982 10980 10978 10975 10973 10971 10969 10967 10965 10964 10962 10960 10958 10956 10954 10952 10951 10949 10947 10945 10944 10943 10942 10941
11023 11022 11021 11020 11019 11018 11017 11016 11015 11015 11014 11013 11012 11011 11010 11010 11009 11007 11006 11006 11005 11004 11004 11003 11002 11001 11001 11000 11000 11000 11000 11000 11000 11000 11000 11000 11001 11002 11002 11002 11001 11001 11001 11000 11000 11000 10999 10999 10998 10998 11000 11001 11000 10998 10997 10996 10996 10994 10992 10990 10989 10987 10985 10982 10980 10978 10976 10974 10972 10971 10969 10967 10965 10964 10962 10960 10958 10956 10954 10952 10949 10948 10946 10945 10943
11025 11024 11023 11022 11021 11020 11019 11018 11017 11016 11016 11015 11014 11013 11012 11012 11011 11009 11008 11008 11008 11007 11006 11006 11004 11004 11004 11003 11003 11003 11002 11003 11004 11004 11004 11005 11005 11006 11006 11005 11004 11004 11004 11004 11003 11003 11003 11002 11001 11001 11002 11002 11002 11001 11001 11000 11000 10998 10995 10994 10993 10992 10989 10987 10985 10983 10981 10979 10977 10976 10974 10972 10971 10969 10968 10966 10964 10962 10959 10957 10955 10953 10951 10949 10947
11027 11026 11025 11024 11022 11022 11021 11020 11019 11018 11018 11017 11016 11015 11014 11013 11013 11012 11011 11011 11010 11009 11009 11009 11007 11006 11006 11006 11006 11006 11005 11006 11007 11006 11007 11008 11008 11008 11008 11008 11008 11008 11008 11007 11007 11007 11007 11006 11005 11004 11004 11004 11004 11004 11005 11005 11004 11001 10999 10998 10997 10996 10994 10991 10989 10988 10986 10984 10982 10981 10979 10977 10976 10975 10973 10971 10969 10967 10965 10963 10961 10959 10957 10955 10952
11028 11027 11027 11025 11024 11024 11023 11022 11021 11020 11020 11019 11019 11018 11017 11016 11015 11014 11014 11013 11012 11011 11012 11012 11010 11009 11009 11009 11009 11009 11008 11009 11009 11009 11010 11011 11011 11011 11011 11011 11012 11012 11011 11011 11011 11011 11010 11009 11009 11007 11007 11007 11008 11008 11008 11008 11007 11004 11002 11001 11001 11000 10997 10995 10994 10992 10990 10989 10987 10985 10984 10982 10981 10980 10978 10976 10974 10972 10971 10969 10967 10965 10963 10961 10958
11030 11029 11028 11027 11026 11026 11025 11024 11023 11022 11022 11021 11020 11020 11019 11018 11017 11017 11016 11016 11015 11014 11014 11013 11012 11012 11012 11012 11012 11012 11012 11012 11012 11013 11013 11013 11014 11014 11014 11015 11015 11015 11015 11015 11015 11015 11014 11013 11012 11011 11010 11010 11010 11011 11011 11010 11009 11007 11005 11004 11004 11003 11001 10999 10997 10996 10994 10993 10991 10990 10988 10987 10986 10984 10982 10980 10979 10977 10976 10974 10972 10971 10969 10967 10964
11031 11030 11029 11028 11028 11027 11027 11026 11025 11024 11023 11023 11022 11021 11021 11020 11020 11020 11019 11019 11018 11017 11016 11016 11015 11015 11015 11015 11015 11015 11015 11015 11015 11016 11016 11016 11017 11017 11017 11017 11018 11018 11018 11019 11019 11019 11019 11017 11016 11015 11014 11013 11013 11012 11012 11012 11011 11010 11008 11007 11006 11005 11003 11002 11000 10999 10998 10996 10995 10994 10992 10991 10990 10988 10987 10985 10984 10982 10981 10979 10978 10976 10974 10972 10970
11033 11032 11031 11030 11030 11029 11029 11028 11027 11026 11025 11024 11023 11023 11023 11022 11022 11022 11022 11021 11020 11020 11019 11018 11018 11017 11017 11017 11017 11017 11017 11018 11018 11018 11018 11019 11019 11019 11020 11020 11020 11020 11020 11021 11022 11022 11022 11021 11019 11018 11017 11016 11015 11015 11014 11014 11013 11012 11011 11010 11008 11007 11005 11004 11003 11002 11001 11000 10999 10997 10996 10995 10994 10992 10991 10989 10988 10986 10985 10984 10982 10981 10979 10977 10975
11034 11034 11032 11032 11032 11031 11031 11030 11029 11028 11027 11026 11025 11024 11024 11024 11024 11025 11024 11024 11023 11022 11022 11021 11020 11020 11020 11019 11019 11019 11020 11020 11020 11020 11021 11021 11021 11021 11022 11022 11022 11021 11021 11022 11023 11023 11023 11023 11022 11021 11020 11019 11018 11017 11017 11016 11015 11014 11013 11012 11011 11009 11008 11007 11006 11005 11004 11003 11002 11001 11000 10999 10997 10996 10994 10993 10992 10990 10989 10988 10987 10985 10984 10982 10980
11036 11035 11034 11034 11034 11033 11033 11032 11031 11030 11029 11028 11027 11026 11026 11025 11026 11026 11026 11025 11025 11024 11024 11023 11023 11023 11022 11022 11022 11021 11022 11022 11022 11022 11022 11023 11022 11023 11023 11023 11023 11023 11022 11022 11024 11025 11025 11025 11024 11023 11022 11021 11020 11020 11019 11018 11017 11016 11015 11014 11013 11012 11010 11009 11008 11007 11006 11005 11004 11004 11003 11002 11000 10999 10997 10996 10995 10994 10993 10992 10991 10989 10988 10987 10985
11036 11036 11036 11036 11035 11035 11034 11034 11034 11033 11031 11030 11029 11028 11028 11027 11027 11027 11027 11027 11026 11026 11026 11026 11025 11025 11024 11024 11024 11024 11024 11024 11024 11024 11024 11024 11024 11024 11024 11024 11024 11024 11024 11024 11025 11027 11027 11026 11025 11025 11024 11023 11022 11022 11021 11020 11019 11018 11017 11016 11015 11014 11013 11012 11011 11010 11009 11008 11007 11006 11005 11004 11003 11002 11001 11000 10999 10997 10996 10995 10994 10993 10992 10990 10989
11036 11037 11037 11036 11036 11036 11036 11036 11035 11035 11034 11033 11032 11031 11030 11029 11028 11028 11028 11028 11027 11027 11027 11027 11027 11026 11026 11026 11025 11025 11025 11025 11025 11025 11025 11025 11025 11025 11025 11025 11025 11026 11026 11026 11027 11027 11027 11026 11026 11025 11025 11024 11023 11023 11022 11021 11020 11020 11019 11018 11017 11016 11015 11014 11013 11012 11011 11010 11009 11008 11007 11007 11006 11005 11004 11003 11002 11001 10999 10998 10997 10996 10995 10994 10993
11036 11036 11037 11037 11037 11037 11036 11036 11036 11036 11035 11034 11033 11033 11031 11030 11030 11029 11029 11029 11029 11029 11029 11029 11028 11028 11028 11027 11027 11026 11026 11026 11027 11027 11027 11026 11026 11026 11026 11027 11027 11027 11027 11027 11027 11027 11027 11027 11026 11026 11025 11025 11024 11024 11023 11022 11022 11021 11020 11019 11019 11018 11017 11016 11015 11014 11014 11013 11012 11011 11010 11009 11008 11007 11007 11006 11005 11004 11002 11001 11000 10999 10998 10997 10996
11036 11036 11036 11037 11037 11037 11036 11036 11036 11035 11035 11035 11035 11034 11033 11032 11031 11030 11029 11029 11029 11029 11030 11030 11030 11029 11029 11029 11029 11028 11028 11028 11027 11027 11027 11027 11027 11028 11028 11028 11028 11028 11028 11028 11028 11028 11028 11027 11027 11026 11026 11025 11025 11025 11024 11023 11023 11022 11021 11020 11019 11019 11018 11018 11017 11016 11015 11015 11014 11013 11012 11011 11011 11010 11009 11008 11007 11006 11005 11004 11003 11002 11001 11000 10999
11036 11036 11036 11036 11037 11037 11036 11036 11036 11035 11035 11035 11035 11034 11034 11033 11032 11031 11030 11030 11029 11029 11029 11030 11030 11030 11030 11030 11030 11030 11029 11029 11029 11029 11028 11028 11029 11029 11029 11029 11029 11029 11029 11029 11029 11028 11028 11028 11027 11027 11026 11026 11025 11025 11025 11024 11024 11023 11022 11021 11020 11020 11019 11019 11018 11017 11017 11016 11016 11015 11014 11013 11012 11012 11011 11010 11009 11008 11007 11006 11005 11005 11004 11003 11002
11035 11036 11036 11036 11036 11036 11036 11035 11035 11035 11034 11034 11034 11034 11034 11033 11033 11032 11031 11030 11030 11029 11029 11029 11029 11029 11030 11030 11030 11030 11030 11029 11029 11029 11029 11029 11030 11030 11030 11030 11030 11030 11030 11029 11029 11029 11028 11028 11027 11027 11027 11026 11025 11025 11025 11024 11024 11023 11023 11022 11021 11020 11020 11019 11018 11018 11017 11017 11017 11016 11015 11015 11014 11013 11012 11011 11010 11010 11009 11008 11007 11006 11006 11005 11004
11033 11033 11034 11034 11034 11034 11034 11034 11034 11034 11034 11033 11034 11034 11033 11033 11033 11032 11032 11031 11030 11030 11029 11029 11029 11029 11029 11029 11029 11029 11029 11029 11029 11029 11029 11030 11030 11030 11030 11030 11030 11030 11030 11029 11029 11029 11028 11028 11028 11027 11027 11026 11026 11025 11024 11024 11024 11023 11022 11022 11021 11020 11020 11019 11018 11018 11017 11017 11016 11016 11016 11015 11015 11014 11013 11012 11011 11011 11010 11009 11009 11008 11007 11007 11006
11030 11031 11031 11032 11032 11032 11032 11033 11033 11033 11033 11032 11032 11032 11032 11032 11032 11031 11031 11031 11031 11030 11030 11029 11029 11029 11028 11028 11028 11028 11028 11028 11028 11028 11028 11029 11029 11029 11029 11029 11029 11029 11029 11029 11028 11028 11028 11028 11028 11027 11027 11026 11025 11025 11024 11024 11023 11023 11022 11021 11021 11020 11019 11019 11018 11018 11017 11016 11015 11015 11015 11014 11014 11014 11013 11013 11012 11011 11010 11010 11009 11009 11008 11008 11007
11026 11027 11028 11029 11029 11030 11030 11031 11031 11032 11032 11031 11030 11030 11030 11030 11031 11030 11030 11030 11030 11030 11030 11029 11029 11029 11028 11028 11027 11027 11027 11026 11026 11026 11026 11027 11027 11027 11027 11027 11027 11027 11027 11027 11027 11027 11027 11027 11027 11026 11026 11025 11024 11024 11023 11023 11022 11021 11021 11020 11020 11019 11019 11018 11017 11016 11016 11015 11015 11014 11013 11013 11013 11012 11012 11012 11011 11011 11010 11010 11009 11009 11009 11008 11008
11022 11023 11024 11025 11026 11026 11027 11027 11029 11030 11030 11030 11029 11028 11028 11028 11029 11029 11029 11029 11029 11029 11029 11029 11028 11028 11027 11027 11027 11026 11026 11025 11025 11024 11025 11025 11025 11026 11026 11026 11025 11025 11025 11025 11025 11025 11025 11026 11025 11025 11024 11023 11023 11022 11021 11021 11020 11020 11019 11019 11018 11018 11018 11017 11016 11014 11014 11013 11013 11013 11012 11011 11011 11011 11010 11010 11010 11010 11009 11009 11009 11008 11008 11008 11008
11017 11018 11019 11020 11022 11023 11023 11024 11025 11026 11028 11027 11027 11027 11026 11026 11026 11027 11027 11028 11028 11028 11027 11027 11027 11027 11026 11026 11026 11025 11025 11024 11023 11023 11023 11023 11023 11023 11024 11024 11024 11024 11024 11023 11023 11023 11023 11023 11023 11023 11022 11021 11021 11020 11019 11019 11018 11018 11018 11017 11016 11016 11016 11016 11015 11014 11012 11011 11011 11011 11011 11009 11009 11009 11008 11008 11008 11008 11008 11008 11008 11008 11008 11007 11007
11013 11014 11015 11016 11017 11018 11020 11020 11021 11022 11024 11024 11024 11024 11024 11023 11024 11024 11025 11025 11026 11026 11026 11025 11025 11025 11024 11024 11024 11024 11024 11023 11022 11022 11022 11022 11021 11021 11021 11022 11022 11021 11021 11021 11021 11021 11020 11021 11021 11020 11020 11019 11019 11019 11018 11017 11016 11016 11016 11016 11015 11014 11014 11014 11014 11012 11011 11010 11008 11008 11009 11008 11007 11007 11006 11006 11006 11006 11006 11006 11006 11006 11006 11006 11006
11009 11010 11011 11011 11012 11013 11015 11016 11017 11019 11020 11020 11019 11021 11022 11021 11021 11021 11021 11022 11022 11023 11023 11023 11023 11022 11022 11022 11022 11022 11022 11022 11020 11020 11020 11020 11019 11019 11019 11019 11019 11019 11019 11019 11019 11018 11018 11018 11018 11018 11017 11016 11016 11016 11016 11015 11014 11013 11013 11013 11013 11012 11011 11012 11012 11011 11010 11009 11007 11006 11006 11007 11006 11006 11005 11005 11004 11004 11004 11005 11005 11005 11005 11005 11005
11006 11007 11007 11007 11008 11010 11010 11011 11013 11015 11015 11015 11015 11017 11018 11018 11017 11017 11017 11018 11019 11019 11019 11019 11019 11019 11019 11019 11019 11020 11020 11019 11018 11018 11018 11017 11017 11017 11016 11016 11016 11016 11016 11016 11016 11016 11015 11015 11015 11014 11014 11014 11013 11013 11013 11012 11012 11010 11010 11010 11010 11009 11008 11008 11009 11009 11009 11008 11006 11004 11004 11004 11005 11005 11004 11004 11003 11003 11002 11003 11003 11003 11003 11003 11003
11002 11004 11004 11004 11004 11005 11006 11008 11009 11009 11009 11011 11011 11011 11014 11015 11014 11014 11014 11015 11015 11015 11015 11015 11015 11015 11015 11015 11015 11016 11016 11016 11015 11015 11015 11015 11015 11014 11014 11014 11014 11014 11014 11014 11013 11013 11013 11012 11011 11011 11011 11011 11011 11011 11010 11009 11009 11008 11007 11006 11006 11006 11005 11005 11005 11006 11006 11007 11006 11004 11003 11003 11003 11003 11003 11002 11002 11002 11001 11001 11001 11001 11001 11002 11001
10999 11001 11001 11000 10999 11000 11002 11003 11003 11001 11002 11006 11007 11007 11009 11011 11011 11011 11011 11011 11012 11011 11011 11011 11011 11011 11010 11009 11010 11011 11011 11011 11012 11012 11013 11013 11012 11012 11011 11011 11011 11011 11011 11011 11011 11010 11010 11010 11009 11008 11008 11009 11009 11008 11007 11007 11006 11006 11005 11004 11003 11003 11002 11002 11002 11002 11002 11004 11004 11003 11001 11000 11000 11000 11001 11001 11000 11000 11000 11000 10999 10998 10999 11000 11000